Erzincan, Turkey

2:51 AM +03 on June 29, 2017 (GMT +0300)
Erzincan

Weather History for LTCD - March, 2013

Change the Weather History Date:

Sunday, March 31, 2013

  Actual Average Record
Temperature  
Mean Temperature 50 °F -  
Max Temperature 68 °F 62 °F - ()
Min Temperature 31 °F 40 °F - ()
Degree Days  
Heating Degree Days 16    
Moisture  
Dew Point 31 °F    
Average Humidity 52    
Maximum Humidity 93    
Minimum Humidity 15    
Precipitation  
Precipitation 0.00 in 0.07 in - ()
Sea Level Pressure  
Sea Level Pressure 30.17 in    
Wind  
Wind Speed 1 mph ()    
Max Wind Speed 5 mph    
Max Gust Speed -    
Visibility 10.5 miles    
Events      
T = Trace of Precipitation, MM = Missing Value Source: Averaged Metar Reports

Daily Weather History Graph

Daily Weather History Graph

Search for Another Location

Airport or City:

Trip Planner

Search our weather history database for the weather conditions in past years. The results will help you decide how hot, cold, wet, or windy it might be!

Date:

Astronomy

Mar. 31, 2013 Rise Set
Actual Time 6:07 AM EEST 6:45 PM EEST
Civil Twilight 5:40 AM EEST 7:12 PM EEST
Nautical Twilight 5:08 AM EEST 7:44 PM EEST
Astronomical Twilight 4:35 AM EEST 8:17 PM EEST
Moon 11:31 PM EEST (3/31) 8:36 AM EEST (3/31)
Length of Visible Light 13h 31m
Length of Day
12h 37m
Waning Gibbous, 80% of the Moon is Illuminated
Mar 31
Waning Gibbous
Apr 3
Last Quarter
Apr 10
New
Apr 18
First Quarter
Apr 25
Full

Hourly Weather History & Observations

Time (EEST) Temp. Windchill Dew Point Humidity Pressure Visibility Wind Dir Wind Speed Gust Speed Precip Events Conditions
12:50 AM 37.4 °F - 33.8 °F 87% 30.18 in - Variable 1.2 mph - N/A   Clear
1:50 AM 37.4 °F - 32.0 °F 81% 30.18 in - Variable 2.3 mph - N/A   Clear
2:00 AM 37 °F - 32 °F 75%  in 12 mi ESE 2.3 mph - -  
2:50 AM 35.6 °F - 32.0 °F 87% 30.21 in - Calm Calm - N/A   Clear
4:50 AM 33.8 °F - 30.2 °F 87% 30.21 in - Calm Calm - N/A   Clear
5:50 AM 33.8 °F - 30.2 °F 87% 30.21 in - Calm Calm - N/A   Clear
6:50 AM 33.8 °F - 32.0 °F 93% 30.21 in - Calm Calm - N/A   Clear
7:50 AM 39.2 °F - 33.8 °F 81% 30.24 in - Calm Calm - N/A   Clear
8:50 AM 50.0 °F - 33.8 °F 54% 30.24 in - Calm Calm - N/A   Clear
9:00 AM 49 °F - 34 °F 44%  in 12 mi Calm Calm - -  
9:50 AM 51.8 °F - 32.0 °F 47% 30.21 in - Calm Calm - N/A   Clear
10:50 AM 57.2 °F - 32.0 °F 38% 30.21 in - Variable 2.3 mph - N/A   Clear
11:50 AM 59.0 °F - 32.0 °F 36% 30.18 in - Variable 1.2 mph - N/A   Clear
12:50 PM 62.6 °F - 30.2 °F 30% 30.18 in - South 3.5 mph - N/A   Clear
1:50 PM 64.4 °F - 28.4 °F 26% 30.15 in - SE 3.5 mph - N/A   Clear
2:50 PM 66.2 °F - 30.2 °F 26% 30.15 in - SE 4.6 mph - N/A   Clear
3:00 PM 66 °F - 30 °F 15%  in 12 mi SE 4.6 mph - -  
3:50 PM 66.2 °F - 30.2 °F 26% 30.12 in - West 3.5 mph - N/A   Clear
4:50 PM 66.2 °F - 28.4 °F 24% 30.12 in - WSW 4.6 mph - N/A   Clear
5:50 PM 66.2 °F - 24.8 °F 21% 30.12 in - Variable 2.3 mph - N/A   Clear
6:50 PM 59.0 °F - 26.6 °F 29% 30.12 in - WSW 1.2 mph - N/A   Clear
7:50 PM 55.4 °F - 30.2 °F 38% 30.12 in - Calm Calm - N/A   Clear
8:50 PM 51.8 °F - 32.0 °F 47% 30.15 in - Calm Calm - N/A   Clear
9:00 PM 51 °F - 31 °F 34%  in 6 mi Calm Calm - -  
9:50 PM 51.8 °F - 33.8 °F 50% 30.15 in - Calm Calm - N/A   Clear
10:50 PM 46.4 °F 45.2 °F 33.8 °F 62% 30.12 in - WNW 3.5 mph - N/A   Clear
11:50 PM 44.6 °F 43.1 °F 35.6 °F 71% 30.12 in - West 3.5 mph - N/A   Clear
12:50 AM 46.4 °F 45.2 °F 33.8 °F 62% 30.12 in - WNW 3.5 mph - N/A   Clear